This is the latest recevied weather packets stored in our database for station/object KB3FKJ. If no packets are shown the sender has not sent any weather packets the latest 10 day(s).
| Time | Temp. | Humidity | Pressure | Rain* | Wind** | Luminosity | Snow |
|---|---|---|---|---|---|---|---|
| 1788570532 | 22.78° C | 85% | 1013.4 hPa | 0 mm | - | 0 W/m² | - |
| 1788570227 | 22.78° C | 84% | 1013.3 hPa | 0 mm | - | 0 W/m² | - |
| 1788569924 | 22.78° C | 84% | 1013.4 hPa | 0 mm | - | 0 W/m² | - |
| 1788569619 | 23.33° C | 84% | 1013.3 hPa | 0 mm | - | 0 W/m² | - |
| 1788569314 | 23.33° C | 84% | 1013.4 hPa | 0 mm | - | 0 W/m² | - |
| 1788569002 | 23.33° C | 84% | 1013.3 hPa | 0 mm | - | 0 W/m² | - |
| 1788542826 | 27.22° C | 74% | 1015.2 hPa | 0 mm | - | 141 W/m² | - |
| 1788542519 | 27.22° C | 74% | 1015.2 hPa | 0 mm | - | 141 W/m² | - |
| 1788542214 | 26.67° C | 73% | 1015.2 hPa | 0 mm | - | 140 W/m² | - |
| 1788541909 | 26.67° C | 71% | 1015.1 hPa | 0 mm | - | 131 W/m² | - |
| 1788541605 | 26.11° C | 72% | 1015.2 hPa | 0 mm | - | 120 W/m² | - |
| 1788541301 | 26.67° C | 71% | 1015.2 hPa | 0 mm | - | 99 W/m² | - |
| 1788540999 | 26.67° C | 74% | 1015.4 hPa | 0 mm | - | 99 W/m² | - |
| 1788540693 | 26.67° C | 74% | 1015.2 hPa | 0 mm | - | 94 W/m² | - |
| 1788540394 | 26.11° C | 73% | 1015.4 hPa | 0 mm | - | 92 W/m² | - |
| 1788540089 | 26.11° C | 72% | 1015.1 hPa | 0 mm | - | 69 W/m² | - |
| 1788539784 | 26.11° C | 77% | 1015.2 hPa | 0 mm | - | 61 W/m² | - |
| 1788539474 | 26.11° C | 73% | 1015.4 hPa | 0 mm | - | 61 W/m² | - |
| 1788539174 | 25.56° C | 74% | 1015.4 hPa | 0 mm | - | 63 W/m² | - |
| 1788538869 | 25.56° C | 74% | 1015.2 hPa | 0 mm | - | 56 W/m² | - |
| 1788538564 | 25.56° C | 75% | 1015.5 hPa | 0 mm | - | 60 W/m² | - |
| 1788538259 | 25.56° C | 74% | 1015.4 hPa | 0 mm | - | 65 W/m² | - |
| 1788537954 | 25.56° C | 76% | 1015.2 hPa | 0 mm | - | 73 W/m² | - |
| 1788537650 | 25.56° C | 76% | 1015.2 hPa | 0 mm | - | 76 W/m² | - |
| 1788537349 | 25.56° C | 75% | 1015.5 hPa | 0 mm | - | 76 W/m² | - |
* Rain latest hour (hover to see other rain measurements)
** Current wind speed in m/s (hover to see current wind gust speed)